Regional Weather Roundup
Issued by NWS

Home | Current Version | Previous Version | Text Only | Print | Product List | Glossary On
Versions: 1 2 3 4 5 6 7 8 9 10 11 12 13 14 15 16 17 18 19 20 21 22 23 24 25 26 27 28 29 30 31 32 33 34 35 36 37 38 39 40 41 42 43 44 45 46 47 48 49 50
000
ASUS46 KLOX 210812
RWRCA

SOUTHERN CALIFORNIA WEATHER ROUNDUP
NATIONAL WEATHER SERVICE OXNARD CALIFORNIA
1200 AM PST SUN DEC 21 2014

NOTE: "FAIR" INDICATES FEW OR NO CLOUDS BELOW 12,000 FEET WITH NO
SIGNIFICANT WEATHER AND/OR OBSTRUCTIONS TO VISIBILITY.

  -  STATIONS PRECEEDED BY AN ASTERISK (*) ARE NOT NWS OR FAA
     STATIONS AND ARE NOT SUBJECT TO NWS AND FAA QUALITY CONTROL.

CAZ041-042-087-210900-
LA AND ORANGE COUNTY COASTAL AREAS


CITY           SKY/WX    TMP DP  RH WIND       PRES   REMARKS
L.A. DOWNTOWN  CLEAR     56  47  71 CALM      30.15S
L.A. AIRPORT   PTCLDY    57  48  72 VRB5      30.15F
LONG BEACH     MOCLDY    58  52  80 CALM      30.15S

CITY           SKY/WX    TMP DP  RH WIND       PRES   REMARKS
AVALON           N/A     55 N/A N/A S3          N/A
FULLERTON      CLEAR     55  49  80 CALM      30.14F HAZE
*GETTY CENTER    N/A     52  48  87 NE3         N/A
HAWTHORNE      CLEAR     57  49  74 CALM      30.15F
*LOS ALAMITOS  FAIR      55  50  82 NE3       30.15F
*REDONDO BEACH   N/A     55  51  86 CALM      30.13F
SANTA ANA      CLEAR     58  51  78 CALM      30.15S
STA MONICA APT PTCLDY    56  48  74 NE3       30.15F
*STA MON PIER    N/A     58  51  77 NW3       30.15F
*UCLA            N/A     54  48  82 N6        30.12F

$$

CAZ547-548-048-210900-
LA COUNTY VALLEYS AND INLAND EMPIRE


CITY           SKY/WX    TMP DP  RH WIND       PRES   REMARKS
BURBANK        CLEAR     53  47  79 NW5       30.15F
VAN NUYS       PTCLDY    52  47  83 CALM      30.16R

CITY           SKY/WX    TMP DP  RH WIND       PRES   REMARKS
CORONA AIRPORT SUNNY     45  45 100 CALM      30.17S FOG
*CHATSWORTH      N/A     53  48  84 CALM      30.15F
CHINO          CLEAR     49  46  90 N3        30.18R FOG
MARCH AFB      CLEAR     44  44 100 W2        30.16S FOG
*NORTHRIDGE      N/A     52  45  76 SE2         N/A
ONTARIO        PTCLDY    51  45  79 CALM      30.16S
*PASADENA        N/A     52  48  87 E1          N/A
RIVERSIDE      CLEAR     50  46  86 CALM      30.16S
SAN BERNARDINO NOT AVBL
*SAN GABRIEL     N/A     52  46  81 CALM      30.14S
*WHITEMAN AP   NOT AVBL
*WOODLAND HILL   N/A     50  48  93 E3          N/A

$$

CAZ054-055-210900-
LA AND SAN BERNARDINO COUNTY MOUNTAINS


CITY           SKY/WX    TMP DP  RH WIND       PRES   REMARKS
*BIG BEAR AIRP MOSUNNY   30  28  93 CALM      30.23F FOG
MT WILSON NWS    N/A     37  39 100 MISG        N/A
SANDBERG       FOG       46  42  86 N51G59    30.17F VSB 3/4
*WARM SPRINGS    N/A     46  45  97 W10G35      N/A

$$

CAZ028-029-059-060-099-210900-
ANTELOPE VALLEY AND SURROUNDING AREAS


CITY           SKY/WX    TMP DP  RH WIND       PRES   REMARKS
LANCASTER      PTCLDY    50  44  80 SW6       30.21F
PALMDALE       CLEAR     48  45  89 SW6       30.22S

CITY           SKY/WX    TMP DP  RH WIND       PRES   REMARKS
29 PALMS       MOCLDY    43  37  79 SW5       30.23F
BARSTOW/DAGGET CLEAR     43  39  86 W6        30.20S
BISHOP         MOCLDY    30  26  85 CALM      30.22S
EDWARDS AFB    CLEAR     41  41 100 W5        30.20R
MOJAVE         FAIR      43  37  81 NW5       30.21R
NEEDLES        CLEAR     48  40  73 CALM      30.14F
VICTORVILLE    CLEAR     45  41  87 W6        30.20R

$$

CAZ039-040-210900-
VENTURA AND SANTA BARBARA COUNTY COAST


CITY           SKY/WX    TMP DP  RH WIND       PRES   REMARKS
CAMARILLO      PTCLDY    54  51  90 CALM      30.14F
OXNARD AIRPORT PTCLDY    56  51  84 NE5       30.14F
*POINT MUGU    PTCLDY    56  52  86 NE6       30.15F
SBA APT/GOLETA MOCLDY    67  49  52 N15       30.12F
*SANTA BARBARA   N/A     61  51  69 CALM      30.21S
*VENTURA         N/A     54  51  89 CALM      30.17F

$$

CAZ044-045-210900-
VENTURA COUNTY VALLEYS


CITY           SKY/WX    TMP DP  RH WIND       PRES   REMARKS
*SIMI VALLEY     N/A     50  49  93 CALM      30.14F
*OJAI            N/A     48  46  91 CALM      30.10F
*FILLMORE        N/A     51  49  90 CALM      30.05F

$$

CAZ053-210900-
VENTURA COUNTY MOUNTAINS


CITY           SKY/WX    TMP DP  RH WIND       PRES   REMARKS
*LOCKWOOD VLY    N/A    N/A N/A N/A MISG        N/A

$$

CAZ034-035-036-210900-
CENTRAL COAST AND SANTA YNEZ VALLEY


CITY           SKY/WX    TMP DP  RH WIND       PRES   REMARKS
SAN LUIS OBISP MOCLDY    57  50  77 NW8       30.25S
SANTA MARIA    CLOUDY    59  52  77 N10       30.24S

CITY           SKY/WX    TMP DP  RH WIND       PRES   REMARKS
*CAL POLY SLO    N/A     59  52  77 N8          N/A
*LOMPOC        CLOUDY    55  50  82 W6        30.23S
*PISMO BEACH     N/A     60  52  75 NW3       30.25S
*SANTA YNEZ    FAIR      55  50  82 NW9       30.20S

$$

CAZ037-038-051-210900-
SAN LUIS OBISPO COUNTY INTERIOR AND CUYAMA VALLEY


CITY           SKY/WX    TMP DP  RH WIND       PRES   REMARKS
*CUYAMA          N/A     52  50  92 CALM      30.25S
PASO ROBLES    MOCLDY    53  49  86 NW7       30.27S

$$

CAZ032-033-061-210900-
SOUTHERN DESERTS


CITY           SKY/WX    TMP DP  RH WIND       PRES   REMARKS
BLYTHE         MOCLDY    50  46  86 CALM      30.14S
IMPERIAL       CLOUDY    49  43  80 W7        30.12S
PALM SPRINGS   MOCLDY    54  45  71 N3        30.15F
THERMAL        MOCLDY    49  43  80 W5        30.11F

$$

ELSEWHERE ACROSS THE WESTERN UNITED STATES AND MEXICO


CITY           SKY/WX    TMP DP  RH WIND       PRES   REMARKS
DENVER, CO     PTCLDY    30  21  69 SW10      29.86F WCI  21
GRAND CANYON,  PTCLDY    24  22  91 CALM      30.15F
HONOLULU, HI   MOCLDY    75  66  73 E3        30.03R
KAHULUI, MAUI  PTCLDY    70  64  83 CALM      30.04R
LAKE TAHOE, CA CLOUDY    43  36  76 S9        30.25F
LAS VEGAS, NV  PTCLDY    45  37  73 SW8       30.12F
MAMMOTH LAKES, FAIR      39  32  75 CALM      30.27S
MEXICO CITY, M CLEAR     57  39  51 S3        30.29
PHOENIX, AZ    PTCLDY    51  43  74 E7        30.10S
PORTLAND, OR   LGT RAIN  58  55  90 SW9       29.72R
RENO, NV       CLOUDY    52  38  58 NW13G22   30.15S
SALT LAKE CITY CLOUDY    40  34  79 SE7       30.02F
SAN DIEGO, CA  MOCLDY    62  53  72 CALM      30.16F
SAN FRANCISCO, CLOUDY    59  59 100 S6        30.25S FOG
SAN JOSE, CA   CLOUDY    58  53  84 SE6       30.27R
SEATTLE, WA    MOCLDY    54  49  83 SW22G40   29.54R
TIJUANA, MEX   CLOUDY    59  52  77 SE3       30.17F

$$

STATION/POSITION TIME  TEMP    WIND        PRES    VSBY  WAVE
                       AIR SEA DIR/SP/G                  HT/PER
                 (UTC) (F)     (DEG/KT/KT) (MB)    (MI)  (FT/S)
POINT ARGUELLO B NOT AVBL
WEST SANTA BARBA 0800   62 62  330/ 25/ 29 1021.6F        13/16
POINT CONCEPTION NOT AVBL
EAST SANTA BARBA NOT AVBL
SANTA MONICA BAY 0800   62 63   40/  8/ 10 1021.0R         5/17


USA.gov is the U.S. government's official web portal to all federal, state and local government web resources and services.